Location: Palmerston North
(40.3500°S, 175.6170°E)
Time: 13:05:46
(UTC+13:00)

Cosmos 2181 Rocket - Pass Details

Date: 24 January 2019
Orbit: 952 x 1015 km, 82.9° (Epoch: 21 February)

Event Time Altitude Azimuth Distance (km) Brightness Sun altitude
Rises 23:29:59 0° 185° (S) 3,674 8.0 -24.2°
Reaches altitude 10° 23:32:31 10° 181° (S) 2,727 7.1 -24.5°
Maximum altitude 23:38:44 65° 99° (E) 1,071 4.0 -25.1°
Enters shadow 23:39:46 56° 54° (NE) 1,153 4.0 -25.2°
